Location: Kergrach
(48.3833°N, 4.5167°W)
Time: 02:49:33
(UTC+00:00)

GEOS 3 Rocket - Pass Details

Date: 18 February 2020
Orbit: 777 x 842 km, 115.0° (Epoch: 05 April)

Event Time Altitude Azimuth Distance (km) Brightness Sun altitude
Rises 05:27:07 0° 39° (NE) 3,363 7.5 -19.6°
Reaches altitude 10° 05:29:25 10° 39° (NE) 2,436 6.7 -19.2°
Maximum altitude 05:34:43 82° 314° (NW) 849 3.6 -18.3°
Enters shadow 05:38:29 20° 227° (SW) 1,827 5.0 -17.7°
